Location: Chimay
(50.0486°N, 4.3171°E)
Time: 05:35:18
(UTC+00:00)

Meteor 1-27 Rocket - Pass Details

Date: 08 August 2020
Orbit: 831 x 909 km, 81.3° (Epoch: 19 September)

Event Time Altitude Azimuth Distance (km) Brightness Sun altitude
Rises 20:22:14 0° 347° (NNW) 3,523 7.9 -10.1°
Reaches altitude 10° 20:24:41 10° 347° (NNW) 2,587 7.1 -10.4°
Maximum altitude 20:30:37 88° 259° (W) 915 3.9 -11.1°
Drops below altitude 10° 20:36:33 10° 171° (S) 2,589 5.8 -11.8°
Enters shadow 20:37:01 - 171° (S) 2,767 5.9 -11.9°
